Вернуться в каталог

STARLINK-5630

АктивенСвязьVLEO
NORAD 55406·PAYLOAD·🇺🇸 United States

Запущен Jan 31, 2023 с Vandenberg Space Force Base

Loading…

Ближайшие Пролёты (ближайшие 24 часа)

TLE

СвежийSource: CelesTrak SupGP

Эпоха: Sep 15, 2026, 03:00 UTC

1 55406C 23014R   26258.12548611  .00015798  00000+0  13236-2 0  2585
2 55406  70.0000 306.9624 0003778 266.7800 236.6238 14.98330914    16

Отслеживайте STARLINK-5630 в реальном времени с AllMySat

Download on the App Store